Location: Marcé
(47.5801°N, 0.3280°W)
Time: 23:05:16
(UTC+01:00)

S-56A Canister/Altair - Pass Details

Date: 05 December 2021
Orbit: 633 x 2499 km, 38.9° (Epoch: 16 January)

Event Time Altitude Azimuth Distance (km) Brightness Sun altitude
Rises 03:42:31 0° 263° (W) 4,441 - -47.7°
Reaches altitude 10° 03:46:11 10° 256° (WSW) 3,150 - -47.1°
Maximum altitude 03:52:43 36° 193° (SSW) 1,426 - -46.1°
Drops below altitude 10° 03:57:29 10° 128° (SE) 2,279 - -45.3°
Exits shadow 03:59:32 - 119° (ESE) 2,998 11.0 -45.0°
Sets 03:59:45 0° 118° (ESE) 3,078 11.1 -45.0°
